[keps] orb08143.amsat
Ray Hoad
r.hoad at att.net
Thu May 22 20:52:37 PDT 2008
SB KEPS @ AMSAT $ORB08143.O
Orbital Elements 08143.OSCAR
HR AMSAT ORBITAL ELEMENTS FOR OSCAR SATELLITES
FROM WA5QGD FORT WORTH,TX May 22, 2008
Send Subscribe/unsubscribe to KEPS at
http://www.amsat.org/mailman/listinfo/keps
BID: ORB08143.O
TO ALL RADIO AMATEURS BT
Satellite: AO-07
Catalog number: 07530
Epoch time: 08143.51608872
Element set: 182
Inclination: 101.4664 deg
RA of node: 175.8699 deg
Eccentricity: 0.0011697
Arg of perigee: 312.9709 deg
Mean anomaly: 047.0384 deg
Mean motion: 12.53573791 rev/day
Decay rate: -2.7e-07 rev/day^2
Epoch rev: 53376
Checksum: 322
Satellite: AO-10
Catalog number: 14129
Epoch time: 08142.04210962
Element set: 0510
Inclination: 025.9433 deg
RA of node: 214.3894 deg
Eccentricity: 0.5993602
Arg of perigee: 125.3703 deg
Mean anomaly: 306.1432 deg
Mean motion: 02.05868367 rev/day
Decay rate: 6.0e-08 rev/day^2
Epoch rev: 18754
Checksum: 282
Satellite: UO-11
Catalog number: 14781
Epoch time: 08142.87965161
Element set: 0675
Inclination: 098.1554 deg
RA of node: 176.5182 deg
Eccentricity: 0.0009562
Arg of perigee: 152.4363 deg
Mean anomaly: 207.7347 deg
Mean motion: 14.79644443 rev/day
Decay rate: 4.03e-06 rev/day^2
Epoch rev: 29996
Checksum: 335
Satellite: RS-15
Catalog number: 23439
Epoch time: 08142.58363573
Element set: 118
Inclination: 064.8155 deg
RA of node: 178.0670 deg
Eccentricity: 0.0147983
Arg of perigee: 127.8962 deg
Mean anomaly: 233.5450 deg
Mean motion: 11.27551818 rev/day
Decay rate: -3.9e-07 rev/day^2
Epoch rev: 55196
Checksum: 328
Satellite: FO-29
Catalog number: 24278
Epoch time: 08142.79398947
Element set: 0788
Inclination: 098.5888 deg
RA of node: 062.5332 deg
Eccentricity: 0.0349772
Arg of perigee: 283.9480 deg
Mean anomaly: 072.3000 deg
Mean motion: 13.52937763 rev/day
Decay rate: 7.6e-07 rev/day^2
Epoch rev: 58082
Checksum: 366
Satellite: SO-33
Catalog number: 25509
Epoch time: 08142.90868348
Element set: 0203
Inclination: 031.4279 deg
RA of node: 104.9406 deg
Eccentricity: 0.0354668
Arg of perigee: 157.5350 deg
Mean anomaly: 204.1228 deg
Mean motion: 14.28215793 rev/day
Decay rate: 2.25e-06 rev/day^2
Epoch rev: 49985
Checksum: 316
Satellite: AO-40
Catalog number: 26609
Epoch time: 08143.33251726
Element set: 61
Inclination: 007.5644 deg
RA of node: 081.5958 deg
Eccentricity: 0.7912190
Arg of perigee: 083.7148 deg
Mean anomaly: 351.2022 deg
Mean motion: 01.25584833 rev/day
Decay rate: -8.5e-07 rev/day^2
Epoch rev: 3471
Checksum: 295
Satellite: VO-52
Catalog number: 28650
Epoch time: 08142.65966166
Element set: 935
Inclination: 097.7912 deg
RA of node: 209.9961 deg
Eccentricity: 0.0026368
Arg of perigee: 225.3611 deg
Mean anomaly: 134.5443 deg
Mean motion: 14.81462978 rev/day
Decay rate: -8.2e-07 rev/day^2
Epoch rev: 16467
Checksum: 341
Satellite: PO-63
Catalog number: 29712
Epoch time: 08143.67096083
Element set: 467
Inclination: 097.8762 deg
RA of node: 202.3353 deg
Eccentricity: 0.0015598
Arg of perigee: 103.2766 deg
Mean anomaly: 257.0201 deg
Mean motion: 14.80155031 rev/day
Decay rate: 5.77e-06 rev/day^2
Epoch rev: 7369
Checksum: 311
/EX
SB KEPS @ AMSAT $ORB08143.D
Orbital Elements 08143.MICROS
HR AMSAT ORBITAL ELEMENTS FOR THE MICROSATS
FROM WA5QGD FORT WORTH,TX May 22, 2008
Send Subscribe/unsubscribe to KEPS at
http://www.amsat.org/mailman/listinfo/keps
BID: ORB08143.D
TO ALL RADIO AMATEURS BT
Satellite: AO-16
Catalog number: 20439
Epoch time: 08142.51535628
Element set: 325
Inclination: 098.2272 deg
RA of node: 123.9434 deg
Eccentricity: 0.0009929
Arg of perigee: 257.1851 deg
Mean anomaly: 102.8229 deg
Mean motion: 14.31793662 rev/day
Decay rate: -1.2e-07 rev/day^2
Epoch rev: 95710
Checksum: 302
Satellite: LO-19
Catalog number: 20442
Epoch time: 08142.91644367
Element set: 0254
Inclination: 098.1983 deg
RA of node: 132.9401 deg
Eccentricity: 0.0010926
Arg of perigee: 252.8624 deg
Mean anomaly: 107.1355 deg
Mean motion: 14.32032468 rev/day
Decay rate: 4.1e-07 rev/day^2
Epoch rev: 95731
Checksum: 289
Satellite: AO-27
Catalog number: 22825
Epoch time: 08142.87792232
Element set: 0975
Inclination: 098.3819 deg
RA of node: 103.8893 deg
Eccentricity: 0.0008171
Arg of perigee: 345.4246 deg
Mean anomaly: 014.6701 deg
Mean motion: 14.29239181 rev/day
Decay rate: 2.0e-08 rev/day^2
Epoch rev: 76401
Checksum: 310
Satellite: IO-26
Catalog number: 22826
Epoch time: 08142.65655785
Element set: 0681
Inclination: 098.3746 deg
RA of node: 104.5972 deg
Eccentricity: 0.0008985
Arg of perigee: 342.4145 deg
Mean anomaly: 017.6723 deg
Mean motion: 14.29487705 rev/day
Decay rate: -5.0e-08 rev/day^2
Epoch rev: 76407
Checksum: 338
Satellite: PO-28
Catalog number: 22829
Epoch time: 08142.93590088
Element set: 0951
Inclination: 098.3628 deg
RA of node: 105.9752 deg
Eccentricity: 0.0009126
Arg of perigee: 311.7023 deg
Mean anomaly: 048.3399 deg
Mean motion: 14.30189155 rev/day
Decay rate: 1.4e-07 rev/day^2
Epoch rev: 76437
Checksum: 321
Satellite: GO-32
Catalog number: 25397
Epoch time: 08142.88600946
Element set: 0607
Inclination: 098.3650 deg
RA of node: 179.3449 deg
Eccentricity: 0.0000879
Arg of perigee: 006.8152 deg
Mean anomaly: 353.3016 deg
Mean motion: 14.23143173 rev/day
Decay rate: -8.4e-07 rev/day^2
Epoch rev: 51247
Checksum: 307
Satellite: MO-46
Catalog number: 26548
Epoch time: 08142.73757437
Element set: 0105
Inclination: 064.5576 deg
RA of node: 212.1164 deg
Eccentricity: 0.0026963
Arg of perigee: 327.6621 deg
Mean anomaly: 032.2839 deg
Mean motion: 14.83261289 rev/day
Decay rate: 6.3e-07 rev/day^2
Epoch rev: 41389
Checksum: 318
Satellite: NO-44
Catalog number: 26931
Epoch time: 08142.83922824
Element set: 0884
Inclination: 067.0537 deg
RA of node: 352.5342 deg
Eccentricity: 0.0006335
Arg of perigee: 276.7389 deg
Mean anomaly: 083.2961 deg
Mean motion: 14.29522366 rev/day
Decay rate: -2.04e-06 rev/day^2
Epoch rev: 34664
Checksum: 322
Satellite: SO-50
Catalog number: 27607
Epoch time: 08143.45048594
Element set: 608
Inclination: 064.5569 deg
RA of node: 131.8000 deg
Eccentricity: 0.0085183
Arg of perigee: 284.6164 deg
Mean anomaly: 074.5522 deg
Mean motion: 14.71356405 rev/day
Decay rate: 4.1e-07 rev/day^2
Epoch rev: 29118
Checksum: 298
Satellite: CO-55
Catalog number: 27844
Epoch time: 08142.53118804
Element set: 0311
Inclination: 098.7148 deg
RA of node: 151.1686 deg
Eccentricity: 0.0009586
Arg of perigee: 188.0453 deg
Mean anomaly: 172.0582 deg
Mean motion: 14.20579892 rev/day
Decay rate: 5.1e-07 rev/day^2
Epoch rev: 25365
Checksum: 317
Satellite: CO-57
Catalog number: 27848
Epoch time: 08143.58233457
Element set: 262
Inclination: 098.7149 deg
RA of node: 151.3057 deg
Eccentricity: 0.0009232
Arg of perigee: 190.0812 deg
Mean anomaly: 170.0183 deg
Mean motion: 14.20388746 rev/day
Decay rate: 3.4e-07 rev/day^2
Epoch rev: 25377
Checksum: 306
Satellite: AO-51
Catalog number: 28375
Epoch time: 08142.58597216
Element set: 104
Inclination: 098.0728 deg
RA of node: 168.6509 deg
Eccentricity: 0.0082898
Arg of perigee: 233.6649 deg
Mean anomaly: 125.6874 deg
Mean motion: 14.40607830 rev/day
Decay rate: 1.5e-07 rev/day^2
Epoch rev: 20457
Checksum: 332
Satellite: CO-56
Catalog number: 28941
Epoch time: 08143.74471613
Element set: 77
Inclination: 098.1063 deg
RA of node: 250.9855 deg
Eccentricity: 0.0171286
Arg of perigee: 133.6184 deg
Mean anomaly: 227.9404 deg
Mean motion: 15.55874363 rev/day
Decay rate: 4.7128e-04 rev/day^2
Epoch rev: 12608
Checksum: 332
Satellite: CP4
Catalog number: 31122
Epoch time: 08143.58236760
Element set: 343
Inclination: 098.0437 deg
RA of node: 210.1234 deg
Eccentricity: 0.0086581
Arg of perigee: 050.3493 deg
Mean anomaly: 310.5312 deg
Mean motion: 14.55126225 rev/day
Decay rate: 5.52e-06 rev/day^2
Epoch rev: 5835
Checksum: 262
Satellite: CP3
Catalog number: 31128
Epoch time: 08142.66577123
Element set: 0338
Inclination: 098.0406 deg
RA of node: 207.2242 deg
Eccentricity: 0.0103846
Arg of perigee: 057.6237 deg
Mean anomaly: 303.4957 deg
Mean motion: 14.51945759 rev/day
Decay rate: -4.6e-07 rev/day^2
Epoch rev: 05808
Checksum: 305
Satellite: LIBERT
Catalog number: 31129
Epoch time: 08143.67523408
Element set: 985
Inclination: 098.0418 deg
RA of node: 208.2318 deg
Eccentricity: 0.0103811
Arg of perigee: 054.1727 deg
Mean anomaly: 306.9028 deg
Mean motion: 14.52036529 rev/day
Decay rate: 3.40e-06 rev/day^2
Epoch rev: 5821
Checksum: 280
/EX
SB KEPS @ AMSAT $ORB08143.W
Orbital Elements 08143.WEATHER
HR AMSAT ORBITAL ELEMENTS FOR WEATHER SATELLITES
FROM WA5QGD FORT WORTH,TX May 22, 2008
Send Subscribe/unsubscribe to KEPS at
http://www.amsat.org/mailman/listinfo/keps
BID: ORB08143.W
TO ALL RADIO AMATEURS BT
Satellite: NOAA-10
Catalog number: 16969
Epoch time: 08142.79732728
Element set: 0128
Inclination: 098.7223 deg
RA of node: 164.8188 deg
Eccentricity: 0.0011435
Arg of perigee: 258.2533 deg
Mean anomaly: 101.7381 deg
Mean motion: 14.27359812 rev/day
Decay rate: 2.6e-07 rev/day^2
Epoch rev: 12767
Checksum: 317
Satellite: NOAA-11
Catalog number: 19531
Epoch time: 08142.64864306
Element set: 0170
Inclination: 098.7970 deg
RA of node: 232.3425 deg
Eccentricity: 0.0012058
Arg of perigee: 140.8400 deg
Mean anomaly: 219.3653 deg
Mean motion: 14.14872471 rev/day
Decay rate: 2.29e-06 rev/day^2
Epoch rev: 01415
Checksum: 277
Satellite: NOAA-12
Catalog number: 21263
Epoch time: 08142.67053100
Element set: 0680
Inclination: 098.7645 deg
RA of node: 144.6254 deg
Eccentricity: 0.0012124
Arg of perigee: 198.1048 deg
Mean anomaly: 161.9680 deg
Mean motion: 14.25532843 rev/day
Decay rate: 1.03e-06 rev/day^2
Epoch rev: 88461
Checksum: 283
Satellite: MET-3/5
Catalog number: 21655
Epoch time: 08142.90782631
Element set: 0475
Inclination: 082.5522 deg
RA of node: 122.9498 deg
Eccentricity: 0.0015017
Arg of perigee: 078.7735 deg
Mean anomaly: 281.5074 deg
Mean motion: 13.17015321 rev/day
Decay rate: 5.1e-07 rev/day^2
Epoch rev: 80612
Checksum: 289
